Вернуться в каталог

LEMUR 2 NEUROSPICY

АктивенПогодаSSO
NORAD 63355·PAYLOAD·🇺🇸 United States

Запущен Mar 26, 2025 с Rocket Lab Launch Complex 1

Loading…

Ближайшие Пролёты (ближайшие 24 часа)

TLE

СвежийSource: Space-Track

Эпоха: Sep 14, 2026, 21:40 UTC

1 63355U 25061E   26257.90302428  .00003522  00000-0  19303-3 0  9997
2 63355  97.5731 233.1056 0015355 314.5371  45.4606 15.14769097 81192

Отслеживайте LEMUR 2 NEUROSPICY в реальном времени с AllMySat

Download on the App Store